Time,TemperatureF,DewpointF,PressureIn,WindDirection,WindDirectionDegrees,WindSpeedMPH,WindSpeedGustMPH,Humidity,HourlyPrecipIn,Conditions,Clouds,dailyrainin,SolarRadiationWatts/m^2,SoftwareType,DateUTC
2013-04-25 00:02:00,70.0,59.0,-100.00,East,91,10.0,15.0,68,0.00,,,0.00,0.000000,,2013-04-25 10:02:00,
2013-04-25 00:12:00,70.0,59.0,-100.00,East,91,10.0,15.0,68,0.00,,,0.00,0.000000,,2013-04-25 10:12:00,
2013-04-25 00:22:00,70.0,59.0,-100.00,East,91,10.0,15.0,68,0.00,,,0.00,0.000000,,2013-04-25 10:22:00,
2013-04-25 00:32:00,70.0,59.0,-100.00,East,91,10.0,15.0,68,0.00,,,0.00,0.000000,,2013-04-25 10:32:00,
2013-04-25 01:02:00,68.0,59.0,-100.00,East,94,12.0,16.0,72,0.00,,,0.00,0.000000,,2013-04-25 11:02:00,
2013-04-25 01:12:00,68.0,59.0,-100.00,East,94,12.0,16.0,72,0.00,,,0.00,0.000000,,2013-04-25 11:12:00,
2013-04-25 01:22:00,68.0,59.0,-100.00,East,94,12.0,16.0,72,0.00,,,0.00,0.000000,,2013-04-25 11:22:00,
2013-04-25 01:32:00,68.0,59.0,-100.00,East,94,12.0,16.0,72,0.00,,,0.00,0.000000,,2013-04-25 11:32:00,
2013-04-25 02:01:00,70.0,59.0,-100.00,ENE,71,11.0,17.0,69,0.00,,,0.00,0.000000,,2013-04-25 12:01:00,
2013-04-25 02:12:00,70.0,59.0,-100.00,ENE,71,11.0,17.0,69,0.00,,,0.00,0.000000,,2013-04-25 12:12:00,
2013-04-25 02:21:00,70.0,59.0,-100.00,ENE,71,11.0,17.0,69,0.00,,,0.00,0.000000,,2013-04-25 12:21:00,
2013-04-25 02:31:00,70.0,59.0,-100.00,ENE,71,11.0,17.0,69,0.00,,,0.00,0.000000,,2013-04-25 12:31:00,
2013-04-25 03:02:00,67.0,57.0,-100.00,East,94,12.0,17.0,70,0.00,,,0.00,0.000000,,2013-04-25 13:02:00,
2013-04-25 03:11:00,67.0,57.0,-100.00,East,94,12.0,17.0,70,0.00,,,0.00,0.000000,,2013-04-25 13:11:00,
2013-04-25 03:21:00,67.0,57.0,-100.00,East,94,12.0,17.0,70,0.00,,,0.00,0.000000,,2013-04-25 13:21:00,
2013-04-25 03:31:00,67.0,57.0,-100.00,East,94,12.0,17.0,70,0.00,,,0.00,0.000000,,2013-04-25 13:31:00,
2013-04-25 04:01:00,68.0,56.0,-100.00,ENE,74,14.0,20.0,66,0.00,,,-99.99,0.000000,,2013-04-25 14:01:00,
2013-04-25 04:11:00,68.0,56.0,-100.00,ENE,74,14.0,20.0,66,0.00,,,-99.99,0.000000,,2013-04-25 14:11:00,
2013-04-25 04:21:00,68.0,56.0,-100.00,ENE,74,14.0,20.0,66,0.00,,,-99.99,0.000000,,2013-04-25 14:21:00,
2013-04-25 04:32:00,68.0,56.0,-100.00,ENE,74,14.0,20.0,66,0.00,,,-99.99,0.000000,,2013-04-25 14:32:00,
2013-04-25 05:02:00,69.0,58.0,-100.00,East,79,15.0,21.0,68,0.00,,,0.00,0.000000,,2013-04-25 15:02:00,
2013-04-25 05:11:00,69.0,58.0,-100.00,East,79,15.0,21.0,68,0.00,,,0.00,0.000000,,2013-04-25 15:11:00,
2013-04-25 05:21:00,69.0,58.0,-100.00,East,79,15.0,21.0,68,0.00,,,0.00,0.000000,,2013-04-25 15:21:00,
2013-04-25 05:33:00,69.0,58.0,-100.00,East,79,15.0,21.0,68,0.00,,,0.00,0.000000,,2013-04-25 15:33:00,
2013-04-25 06:02:00,68.0,56.0,-100.00,East,86,11.0,19.0,66,0.00,,,0.00,0.000000,,2013-04-25 16:02:00,
2013-04-25 06:13:00,68.0,56.0,-100.00,East,86,11.0,19.0,66,0.00,,,0.00,0.000000,,2013-04-25 16:13:00,
2013-04-25 06:24:00,68.0,56.0,-100.00,East,86,11.0,19.0,66,0.00,,,0.00,0.000000,,2013-04-25 16:24:00,
2013-04-25 06:32:00,68.0,56.0,-100.00,East,86,11.0,19.0,66,0.00,,,0.00,0.000000,,2013-04-25 16:32:00,
2013-04-25 07:02:00,71.0,59.0,-100.00,ENE,57,5.0,15.0,66,0.00,,,0.00,22.000000,,2013-04-25 17:02:00,
2013-04-25 07:11:00,71.0,59.0,-100.00,ENE,57,5.0,15.0,66,0.00,,,0.00,22.000000,,2013-04-25 17:11:00,
2013-04-25 07:22:00,71.0,59.0,-100.00,ENE,57,5.0,15.0,66,0.00,,,0.00,22.000000,,2013-04-25 17:22:00,
2013-04-25 07:31:00,71.0,59.0,-100.00,ENE,57,5.0,15.0,66,0.00,,,0.00,22.000000,,2013-04-25 17:31:00,
2013-04-25 08:01:00,75.0,58.0,-100.00,NE,48,11.0,20.0,56,0.00,,,0.00,220.000000,,2013-04-25 18:01:00,
2013-04-25 08:11:00,75.0,58.0,-100.00,NE,48,11.0,20.0,56,0.00,,,0.00,220.000000,,2013-04-25 18:11:00,
2013-04-25 08:21:00,75.0,58.0,-100.00,NE,48,11.0,20.0,56,0.00,,,0.00,220.000000,,2013-04-25 18:21:00,
2013-04-25 08:31:00,75.0,58.0,-100.00,NE,48,11.0,20.0,56,0.00,,,0.00,220.000000,,2013-04-25 18:31:00,
2013-04-25 09:01:00,78.0,57.0,-100.00,NE,50,17.0,28.0,49,0.00,,,0.00,476.000000,,2013-04-25 19:01:00,
2013-04-25 09:12:00,78.0,57.0,-100.00,NE,50,17.0,28.0,49,0.00,,,0.00,476.000000,,2013-04-25 19:12:00,
2013-04-25 09:21:00,78.0,57.0,-100.00,NE,50,17.0,28.0,49,0.00,,,0.00,476.000000,,2013-04-25 19:21:00,
2013-04-25 09:31:00,78.0,57.0,-100.00,NE,50,17.0,28.0,49,0.00,,,0.00,476.000000,,2013-04-25 19:31:00,
2013-04-25 10:01:00,78.0,56.0,-100.00,NW,322,7.0,24.0,46,0.00,,,0.00,712.000000,,2013-04-25 20:01:00,
2013-04-25 10:11:00,78.0,56.0,-100.00,NW,322,7.0,24.0,46,0.00,,,0.00,712.000000,,2013-04-25 20:11:00,
2013-04-25 10:22:00,78.0,56.0,-100.00,NW,322,7.0,24.0,46,0.00,,,0.00,712.000000,,2013-04-25 20:22:00,
2013-04-25 10:32:00,78.0,56.0,-100.00,NW,322,7.0,24.0,46,0.00,,,0.00,712.000000,,2013-04-25 20:32:00,
2013-04-25 11:01:00,81.0,63.0,-100.00,NE,43,8.0,18.0,54,0.00,,,0.00,884.000000,,2013-04-25 21:01:00,
2013-04-25 11:11:00,81.0,63.0,-100.00,NE,43,8.0,18.0,54,0.00,,,0.00,884.000000,,2013-04-25 21:11:00,
2013-04-25 11:21:00,81.0,63.0,-100.00,NE,43,8.0,18.0,54,0.00,,,0.00,884.000000,,2013-04-25 21:21:00,
2013-04-25 11:33:00,81.0,63.0,-100.00,NE,43,8.0,18.0,54,0.00,,,0.00,884.000000,,2013-04-25 21:33:00,
2013-04-25 12:02:00,82.0,64.0,-100.00,North,4,7.0,17.0,55,0.00,,,0.00,1027.000000,,2013-04-25 22:02:00,
2013-04-25 12:12:00,82.0,64.0,-100.00,North,4,7.0,17.0,55,0.00,,,0.00,1027.000000,,2013-04-25 22:12:00,
2013-04-25 12:22:00,82.0,64.0,-100.00,North,4,7.0,17.0,55,0.00,,,0.00,1027.000000,,2013-04-25 22:22:00,
2013-04-25 12:32:00,82.0,64.0,-100.00,North,4,7.0,17.0,55,0.00,,,0.00,1027.000000,,2013-04-25 22:32:00,
2013-04-25 13:02:00,80.0,62.0,-100.00,WNW,283,8.0,13.0,54,0.00,,,0.00,771.000000,,2013-04-25 23:02:00,
2013-04-25 13:12:00,80.0,62.0,-100.00,WNW,283,8.0,13.0,54,0.00,,,0.00,771.000000,,2013-04-25 23:12:00,
2013-04-25 13:22:00,80.0,62.0,-100.00,WNW,283,8.0,13.0,54,0.00,,,0.00,771.000000,,2013-04-25 23:22:00,
2013-04-25 13:32:00,80.0,62.0,-100.00,WNW,283,8.0,13.0,54,0.00,,,0.00,771.000000,,2013-04-25 23:32:00,
2013-04-25 14:01:00,81.0,58.0,-100.00,NE,45,12.0,25.0,46,0.00,,,0.00,838.000000,,2013-04-26 00:01:00,
2013-04-25 14:11:00,81.0,58.0,-100.00,NE,45,12.0,25.0,46,0.00,,,0.00,838.000000,,2013-04-26 00:11:00,
2013-04-25 14:21:00,81.0,58.0,-100.00,NE,45,12.0,25.0,46,0.00,,,0.00,838.000000,,2013-04-26 00:21:00,
2013-04-25 14:31:00,81.0,58.0,-100.00,NE,45,12.0,25.0,46,0.00,,,0.00,838.000000,,2013-04-26 00:31:00,
2013-04-25 15:01:00,78.0,64.0,-100.00,WSW,256,7.0,19.0,63,0.00,,,0.00,460.000000,,2013-04-26 01:01:00,
2013-04-25 15:11:00,78.0,64.0,-100.00,WSW,256,7.0,19.0,63,0.00,,,0.00,460.000000,,2013-04-26 01:11:00,
2013-04-25 15:21:00,78.0,64.0,-100.00,WSW,256,7.0,19.0,63,0.00,,,0.00,460.000000,,2013-04-26 01:21:00,
2013-04-25 15:31:00,78.0,64.0,-100.00,WSW,256,7.0,19.0,63,0.00,,,0.00,460.000000,,2013-04-26 01:31:00,
2013-04-25 16:01:00,80.0,61.0,-100.00,WSW,256,12.0,20.0,52,0.00,,,0.00,486.000000,,2013-04-26 02:01:00,
2013-04-25 16:11:00,80.0,61.0,-100.00,WSW,256,12.0,20.0,52,0.00,,,0.00,486.000000,,2013-04-26 02:11:00,
2013-04-25 16:21:00,80.0,61.0,-100.00,WSW,256,12.0,20.0,52,0.00,,,0.00,486.000000,,2013-04-26 02:21:00,
2013-04-25 16:31:00,80.0,61.0,-100.00,WSW,256,12.0,20.0,52,0.00,,,0.00,486.000000,,2013-04-26 02:31:00,
2013-04-25 17:01:00,79.0,65.0,-100.00,ENE,73,10.0,17.0,62,0.00,,,0.00,238.000000,,2013-04-26 03:01:00,
2013-04-25 17:11:00,79.0,65.0,-100.00,ENE,73,10.0,17.0,62,0.00,,,0.00,238.000000,,2013-04-26 03:11:00,
2013-04-25 17:21:00,79.0,65.0,-100.00,ENE,73,10.0,17.0,62,0.00,,,0.00,238.000000,,2013-04-26 03:21:00,
2013-04-25 17:32:00,79.0,65.0,-100.00,ENE,73,10.0,17.0,62,0.00,,,0.00,238.000000,,2013-04-26 03:32:00,
2013-04-25 18:02:00,77.0,61.0,-100.00,ENE,66,15.0,22.0,57,0.00,,,0.00,172.000000,,2013-04-26 04:02:00,
2013-04-25 18:12:00,77.0,61.0,-100.00,ENE,66,15.0,22.0,57,0.00,,,0.00,172.000000,,2013-04-26 04:12:00,
2013-04-25 18:22:00,77.0,61.0,-100.00,ENE,66,15.0,22.0,57,0.00,,,0.00,172.000000,,2013-04-26 04:22:00,
2013-04-25 18:32:00,77.0,61.0,-100.00,ENE,66,15.0,22.0,57,0.00,,,0.00,172.000000,,2013-04-26 04:32:00,
2013-04-25 19:02:00,74.0,59.0,-100.00,ENE,71,18.0,25.0,59,0.00,,,0.00,108.000000,,2013-04-26 05:02:00,
2013-04-25 19:12:00,74.0,59.0,-100.00,ENE,71,18.0,25.0,59,0.00,,,0.00,108.000000,,2013-04-26 05:12:00,
2013-04-25 19:22:00,74.0,59.0,-100.00,ENE,71,18.0,25.0,59,0.00,,,0.00,108.000000,,2013-04-26 05:22:00,
2013-04-25 19:32:00,74.0,59.0,-100.00,ENE,71,18.0,25.0,59,0.00,,,0.00,108.000000,,2013-04-26 05:32:00,
2013-04-25 20:02:00,72.0,60.0,-100.00,NE,47,12.0,25.0,66,0.00,,,0.00,2.000000,,2013-04-26 06:02:00,
2013-04-25 20:11:00,72.0,60.0,-100.00,NE,47,12.0,25.0,66,0.00,,,0.00,2.000000,,2013-04-26 06:11:00,
2013-04-25 20:21:00,72.0,60.0,-100.00,NE,47,12.0,25.0,66,0.00,,,0.00,2.000000,,2013-04-26 06:21:00,
2013-04-25 20:32:00,72.0,60.0,-100.00,NE,47,12.0,25.0,66,0.00,,,0.00,2.000000,,2013-04-26 06:32:00,
2013-04-25 21:01:00,72.0,60.0,-100.00,ENE,74,18.0,28.0,65,0.00,,,0.00,0.000000,,2013-04-26 07:01:00,
2013-04-25 21:11:00,72.0,60.0,-100.00,ENE,74,18.0,28.0,65,0.00,,,0.00,0.000000,,2013-04-26 07:11:00,
2013-04-25 21:22:00,72.0,60.0,-100.00,ENE,74,18.0,28.0,65,0.00,,,0.00,0.000000,,2013-04-26 07:22:00,
2013-04-25 21:31:00,72.0,60.0,-100.00,ENE,74,18.0,28.0,65,0.00,,,0.00,0.000000,,2013-04-26 07:31:00,
2013-04-25 22:02:00,72.0,55.0,-100.00,ENE,68,17.0,27.0,56,0.00,,,0.00,0.000000,,2013-04-26 08:02:00,
2013-04-25 22:11:00,72.0,55.0,-100.00,ENE,68,17.0,27.0,56,0.00,,,0.00,0.000000,,2013-04-26 08:11:00,
2013-04-25 22:21:00,72.0,55.0,-100.00,ENE,68,17.0,27.0,56,0.00,,,0.00,0.000000,,2013-04-26 08:21:00,
2013-04-25 22:31:00,72.0,55.0,-100.00,ENE,68,17.0,27.0,56,0.00,,,0.00,0.000000,,2013-04-26 08:31:00,
2013-04-25 23:01:00,71.0,59.0,-100.00,ENE,62,21.0,29.0,67,0.00,,,0.00,0.000000,,2013-04-26 09:01:00,
2013-04-25 23:11:00,71.0,59.0,-100.00,ENE,62,21.0,29.0,67,0.00,,,0.00,0.000000,,2013-04-26 09:11:00,
2013-04-25 23:21:00,71.0,59.0,-100.00,ENE,62,21.0,29.0,67,0.00,,,0.00,0.000000,,2013-04-26 09:21:00,
2013-04-25 23:32:00,71.0,59.0,-100.00,ENE,62,21.0,29.0,67,0.00,,,0.00,0.000000,,2013-04-26 09:32:00,